Location: Arclight Observatory
(36.5667°N, 87.3333°W)
Time: 01:52:17
(UTC-05:00)

ISS - Visible Passes

Search period start: 24 April 2018 00:00
Search period end: 04 May 2018 00:00
Orbit: 403 x 406 km, 51.6° (Epoch: 24 April)

Date Brightness Start Highest point End Pass type
(mag) Time Alt. Az. Time Alt. Az. Time Alt. Az.
28 Apr -1.3 05:28:09 10° S 05:30:23 17° SE 05:32:38 10° E visible
30 Apr -3.0 05:18:54 10° SSW 05:22:02 46° SE 05:25:11 10° ENE visible
01 May -1.9 04:28:22 16° SSE 04:29:50 22° SE 04:32:26 10° ENE visible
02 May -0.9 03:38:16 10° ESE 03:38:16 10° ESE 03:38:33 10° ESE visible
02 May -3.6 05:10:55 13° WSW 05:13:46 60° NW 05:17:00 10° NE visible
03 May -3.6 04:20:44 46° SSW 04:21:26 62° SE 04:24:40 10° NE visible
